Location: Ballingbuur
(53.0000°N, 5.7667°E)
Time: 20:46:57
(UTC+00:00)

Cosmos 1743 Rocket - Visible Passes

Search period start: 13 April 2021 00:00
Search period end: 23 April 2021 00:00
Orbit: 604 x 633 km, 82.6° (Epoch: 13 April)

Date Brightness Start Highest point End Pass type
(mag) Time Alt. Az. Time Alt. Az. Time Alt. Az.
13 Apr 5.8 20:52:53 10° NE 20:54:27 12° NE 20:55:24 11° ENE visible
13 Apr 3.9 22:28:49 10° N 22:32:33 60° NNE 22:32:33 60° NNE visible
14 Apr 5.8 00:07:54 10° NW 00:09:41 15° WNW 00:09:41 15° WNW visible
14 Apr 5.4 21:08:59 10° NNE 21:11:59 18° ENE 21:12:33 17° ENE visible
14 Apr 4.0 22:46:00 10° NNW 22:49:42 58° NW 22:49:42 58° NW visible
15 Apr 4.8 21:25:40 10° N 21:29:26 27° ENE 21:29:43 27° ENE visible
15 Apr 4.6 23:03:20 10° NNW 23:06:52 38° WNW 23:06:52 38° WNW visible
16 Apr 4.1 21:42:34 10° N 21:46:46 44° ENE 21:46:54 43° ENE visible
16 Apr 5.2 23:20:52 10° NNW 23:24:03 24° W 23:24:03 24° W visible
17 Apr 5.8 20:23:38 10° NE 20:25:17 12° ENE 20:26:56 10° E visible
17 Apr 3.4 21:59:38 10° N 22:04:00 74° ENE 22:04:05 73° E visible
17 Apr 5.8 23:38:47 10° NW 23:41:14 15° W 23:41:14 15° W visible
18 Apr 5.3 20:39:46 10° NNE 20:42:49 18° ENE 20:44:08 16° E visible
18 Apr 3.6 22:16:50 10° NNW 22:21:09 66° W 22:21:17 66° WSW visible
19 Apr 4.7 20:56:28 10° N 21:00:15 28° ENE 21:01:20 25° E visible
19 Apr 4.4 22:34:10 10° NNW 22:38:13 39° W 22:38:29 38° WSW visible
20 Apr 4.0 21:13:22 10° N 21:17:35 45° ENE 21:18:34 38° ESE visible
20 Apr 5.2 22:51:42 10° NW 22:55:11 24° W 22:55:43 23° W visible
21 Apr 5.7 19:54:23 10° NNE 19:56:07 12° ENE 19:57:51 10° E visible
21 Apr 3.4 21:30:27 10° N 21:34:49 76° ENE 21:35:48 52° SSE visible
21 Apr 5.8 23:09:40 10° NW 23:12:05 15° W 23:12:56 14° W visible
22 Apr 5.3 20:10:33 10° NNE 20:13:39 19° ENE 20:15:53 13° E visible
22 Apr 3.7 21:47:39 10° NNW 21:51:58 64° W 21:53:02 46° SSW visible
